Regional Weather Roundup
Issued by NWS

Home | Current Version | Previous Version | Text Only | Print | Product List | Glossary On
Versions: 1 2 3 4 5 6 7 8 9 10 11 12 13 14 15 16 17 18 19 20 21 22 23 24 25 26 27
000
ASUS44 KBMX 052110
RWRAL

ALABAMA REGIONAL WEATHER ROUNDUP
NATIONAL WEATHER SERVICE BIRMINGHAM AL
400 PM CDT THU MAY 05 2016

NOTE: "FAIR" INDICATES FEW OR NO CLOUDS BELOW 12,000 FEET
WITH NO SIGNIFICANT WEATHER AND/OR OBSTRUCTIONS TO VISIBILITY.

THE REMARK "TC" DENOTES TEMPERATURE IN DEGREES CELSIUS.

ALZ001>011-014-016>018-020-052200-
NORTH ALABAMA

CITY           SKY/WX    TMP DP  RH WIND       PRES   REMARKS
MUSCLE SHOALS  MOSUNNY   69  38  32 NW13G25   29.88S
HUNTSVILLE     MOSUNNY   68  39  34 NW15G26   29.84S
DECATUR        MOSUNNY   67  39  35 N17G26    29.85S
HALEYVILLE     FAIR      67  39  35 NW16G29   29.88S
GADSDEN        MOSUNNY   68  40  35 NW17G23   29.80F
$$

ALZ012-013-022-023-030>036-040>044-052200-
WEST CENTRAL ALABAMA

CITY           SKY/WX    TMP DP  RH WIND       PRES   REMARKS
TUSCALOOSA     SUNNY     73  37  27 NW13G28   29.85F
$$

ALZ015-024>027-033>036-040>044-052200-
CENTRAL ALABAMA

CITY           SKY/WX    TMP DP  RH WIND       PRES   REMARKS
BIRMINGHAM     PTSUNNY   70  36  28 NW20G26   29.85S
MONTGOMERY     MOSUNNY   74  40  29 W16G26    29.81F
SHELBY CO ARPT MOSUNNY   72  37  28 NW15G25   29.82F
MAXWELL AFB    MOSUNNY   72  40  30 NW15      29.80F
GREENVILLE     NOT AVBL
$$

ALZ019-021-028-029-037-038-045>048-052200-
EAST CENTRAL ALABAMA

CITY           SKY/WX    TMP DP  RH WIND       PRES   REMARKS
ANNISTON       PTSUNNY   67  36  31 NW13G24   29.79F
ALEXANDER CITY MOSUNNY   70  46  42 W14G24    29.80S
AUBURN         PTSUNNY   68  38  33 NW15G25   29.80F
$$

ALZ051>064-052200-
SOUTHWEST ALABAMA

CITY           SKY/WX    TMP DP  RH WIND       PRES   REMARKS
MOBILE         MOSUNNY   75  45  34 NW12G23   29.86F
BROOKLEY FIELD SUNNY     77  45  32 NW17      29.85F
EVERGREEN      SUNNY     73  38  27 NW8G17    29.85F
$$

ALZ049-050-065>069-052200-
SOUTHEAST ALABAMA

CITY           SKY/WX    TMP DP  RH WIND       PRES   REMARKS
DOTHAN         SUNNY     73  35  25 NW23G44   29.82F
OZARK          SUNNY     73  36  25 NW15G25   29.80F
TROY           MOSUNNY   71  40  32 W13G20    29.82F
EUFAULA        PTSUNNY   73  39  29 W15G28    29.78F
$$




USA.gov is the U.S. government's official web portal to all federal, state and local government web resources and services.